Rochester, NH

3:33 PM EDT on June 26, 2017 (GMT -0400)
Skyhaven

Weather History for KDAW - November, 2012

Change the Weather History Date:

Monday, November 5, 2012

  Actual Average (KPSM) Record (KPSM)
Temperature  
Mean Temperature 34 °F -  
Max Temperature 39 °F 50 °F 78 °F (1994)
Min Temperature 28 °F 34 °F 20 °F (1989)
Degree Days  
Heating Degree Days 32    
Moisture  
Dew Point 22 °F    
Average Humidity 60    
Maximum Humidity 67    
Minimum Humidity 44    
Precipitation  
Precipitation 0.00 in - - ()
Sea Level Pressure  
Sea Level Pressure 30.00 in    
Wind  
Wind Speed 5 mph (NW)    
Max Wind Speed 10 mph    
Max Gust Speed -    
Visibility 10 miles    
Events      
Averages and records for this station are not official NWS values.
T = Trace of Precipitation, MM = Missing Value Source: NWS Daily Summary

Daily Weather History Graph

Daily Weather History Graph

Search for Another Location

Airport or City:

Trip Planner

Search our weather history database for the weather conditions in past years. The results will help you decide how hot, cold, wet, or windy it might be!

Date:

Astronomy

Nov. 05, 2012 Rise Set
Actual Time 6:24 AM EST 4:29 PM EST
Civil Twilight 5:54 AM EST 4:59 PM EST
Nautical Twilight 5:20 AM EST 5:33 PM EST
Astronomical Twilight 4:47 AM EST 6:06 PM EST
Moon 10:04 PM EST (11/5) 11:42 AM EST (11/5)
Length of Visible Light 11h 05m
Length of Day
10h 05m
Waning Gibbous, 63% of the Moon is Illuminated
Nov 5
Waning Gibbous
Nov 6
Last Quarter
Nov 13
New
Nov 20
First Quarter
Nov 28
Full

Hourly Weather History & Observations

Time (EST) Temp. Windchill Dew Point Humidity Pressure Visibility Wind Dir Wind Speed Gust Speed Precip Events Conditions
12:51 AM 37.0 °F 32.4 °F 27.0 °F 67% 29.93 in 10.0 mi WNW 5.8 mph - N/A   Overcast
1:51 AM 37.0 °F 31.6 °F 27.0 °F 67% 29.94 in 10.0 mi NW 6.9 mph - N/A   Overcast
2:51 AM 37.0 °F 33.3 °F 27.0 °F 67% 29.94 in 10.0 mi NW 4.6 mph - N/A   Overcast
3:51 AM 37.0 °F 33.3 °F 24.1 °F 59% 29.94 in 10.0 mi NW 4.6 mph - N/A   Overcast
4:51 AM 36.0 °F - 25.0 °F 64% 29.94 in 10.0 mi Calm Calm - N/A   Overcast
5:51 AM 36.0 °F - 24.1 °F 62% 29.95 in 10.0 mi Calm Calm - N/A   Overcast
6:47 AM 35.6 °F - 24.8 °F 65% 29.96 in 10.0 mi Calm Calm - N/A   Overcast
6:51 AM 36.0 °F - 25.0 °F 64% 29.97 in 10.0 mi Calm Calm - N/A   Overcast
7:51 AM 36.0 °F - 26.1 °F 67% 29.99 in 10.0 mi Calm Calm - N/A   Overcast
8:51 AM 37.0 °F 33.3 °F 25.0 °F 62% 29.99 in 10.0 mi North 4.6 mph - N/A   Overcast
9:51 AM 37.0 °F 32.4 °F 26.1 °F 65% 29.99 in 10.0 mi Variable 5.8 mph - N/A   Overcast
10:51 AM 37.0 °F 31.6 °F 25.0 °F 62% 29.99 in 10.0 mi NW 6.9 mph - N/A   Overcast
11:51 AM 37.9 °F 32.7 °F 24.1 °F 57% 29.98 in 10.0 mi WNW 6.9 mph - N/A   Overcast
12:51 PM 39.0 °F 32.8 °F 23.0 °F 53% 29.96 in 10.0 mi North 9.2 mph - N/A   Overcast
1:51 PM 39.0 °F 33.4 °F 24.1 °F 55% 29.96 in 10.0 mi NNW 8.1 mph - N/A   Overcast
2:51 PM 39.0 °F 33.4 °F 23.0 °F 53% 29.97 in 10.0 mi North 8.1 mph - N/A   Overcast
3:51 PM 37.9 °F 30.9 °F 19.0 °F 47% 29.99 in 10.0 mi NNW 10.4 mph - N/A   Overcast
4:51 PM 37.0 °F 29.8 °F 17.1 °F 44% 30.02 in 10.0 mi NNW 10.4 mph - N/A   Overcast
5:51 PM 33.1 °F 26.1 °F 17.1 °F 52% 30.05 in 10.0 mi NNW 8.1 mph - N/A   Mostly Cloudy
6:51 PM 30.9 °F 27.5 °F 16.0 °F 54% 30.06 in 10.0 mi WNW 3.5 mph - N/A   Clear
7:51 PM 30.9 °F - 16.0 °F 54% 30.08 in 10.0 mi Calm Calm - N/A   Clear
8:51 PM 30.0 °F - 16.0 °F 56% 30.09 in 10.0 mi Calm Calm - N/A   Clear
9:51 PM 28.0 °F 21.7 °F 18.0 °F 66% 30.10 in 10.0 mi WNW 5.8 mph - N/A   Clear
10:51 PM 28.9 °F 25.2 °F 18.0 °F 64% 30.10 in 10.0 mi West 3.5 mph - N/A   Clear
11:51 PM 28.0 °F - 18.0 °F 66% 30.11 in 10.0 mi Calm Calm - N/A   Clear